Time,TemperatureF,DewpointF,PressureIn,WindDirection,WindDirectionDegrees,WindSpeedMPH,WindSpeedGustMPH,Humidity,HourlyPrecipIn,Conditions,Clouds,dailyrainin,SoftwareType,DateUTC
2013-02-02 00:01:00,35.6,33.5,30.22,SE,135,0.0,0.0,92,0.00,,,0.00,WUHU216HW,2013-02-02 08:01:00,
2013-02-02 00:06:00,35.5,33.3,30.22,SE,135,0.0,0.0,92,0.00,,,0.00,WUHU216HW,2013-02-02 08:06:00,
2013-02-02 00:11:00,35.3,33.1,30.22,SE,135,0.0,0.0,92,0.00,,,0.00,WUHU216HW,2013-02-02 08:11:00,
2013-02-02 00:16:00,35.1,32.9,30.22,SE,135,0.0,0.0,92,0.00,,,0.00,WUHU216HW,2013-02-02 08:16:00,
2013-02-02 00:21:00,34.9,32.8,30.22,SE,135,0.0,0.2,92,0.00,,,0.00,WUHU216HW,2013-02-02 08:21:00,
2013-02-02 00:26:00,34.9,32.8,30.22,SE,135,0.0,0.2,92,0.00,,,0.00,WUHU216HW,2013-02-02 08:26:00,
2013-02-02 00:31:00,34.7,32.6,30.22,SE,135,0.0,0.0,92,0.00,,,0.00,WUHU216HW,2013-02-02 08:31:00,
2013-02-02 00:36:00,34.6,32.4,30.22,SE,135,0.0,0.0,92,0.00,,,0.00,WUHU216HW,2013-02-02 08:36:00,
2013-02-02 00:41:00,34.4,32.2,30.22,SE,135,0.0,0.0,92,0.00,,,0.00,WUHU216HW,2013-02-02 08:41:00,
2013-02-02 00:46:00,34.2,32.0,30.22,SE,135,0.0,0.7,92,0.00,,,0.00,WUHU216HW,2013-02-02 08:46:00,
2013-02-02 00:51:00,34.2,32.0,30.22,SE,135,0.0,0.7,92,0.00,,,0.00,WUHU216HW,2013-02-02 08:51:00,
2013-02-02 00:56:00,34.2,32.3,30.22,SSE,158,0.2,0.4,93,0.00,,,0.00,WUHU216HW,2013-02-02 08:56:00,
2013-02-02 01:01:00,34.4,32.5,30.22,SSE,158,0.0,0.4,93,0.00,,,0.00,WUHU216HW,2013-02-02 09:01:00,
2013-02-02 01:06:00,34.4,32.5,30.22,SSE,158,0.2,0.4,93,0.00,,,0.00,WUHU216HW,2013-02-02 09:06:00,
2013-02-02 01:11:00,34.6,32.7,30.22,SSE,158,0.0,0.4,93,0.00,,,0.00,WUHU216HW,2013-02-02 09:11:00,
2013-02-02 01:16:00,34.6,32.7,30.22,SSE,158,0.0,0.4,93,0.00,,,0.00,WUHU216HW,2013-02-02 09:16:00,
2013-02-02 01:21:00,34.7,33.1,30.22,SSE,158,0.0,0.2,94,0.00,,,0.00,WUHU216HW,2013-02-02 09:21:00,
2013-02-02 01:26:00,34.6,32.7,30.22,SSE,158,0.0,0.2,93,0.00,,,0.00,WUHU216HW,2013-02-02 09:26:00,
2013-02-02 01:31:00,34.6,32.7,30.22,SSE,158,0.0,0.4,93,0.00,,,0.00,WUHU216HW,2013-02-02 09:31:00,
2013-02-02 01:36:00,34.6,32.9,30.22,SSE,158,0.0,0.4,94,0.00,,,0.00,WUHU216HW,2013-02-02 09:36:00,
2013-02-02 01:41:00,34.7,32.9,30.23,SSE,158,0.0,0.2,93,0.00,,,0.00,WUHU216HW,2013-02-02 09:41:00,
2013-02-02 01:46:00,34.7,33.1,30.23,SSE,158,0.0,0.2,94,0.00,,,0.00,WUHU216HW,2013-02-02 09:46:00,
2013-02-02 01:51:00,34.7,33.1,30.23,SSE,158,0.0,0.2,94,0.00,,,0.00,WUHU216HW,2013-02-02 09:51:00,
2013-02-02 01:56:00,34.7,33.1,30.24,SSE,158,0.0,0.0,94,0.00,,,0.00,WUHU216HW,2013-02-02 09:56:00,
2013-02-02 02:01:00,34.7,33.1,30.23,SSE,158,0.0,0.0,94,0.00,,,0.00,WUHU216HW,2013-02-02 10:01:00,
2013-02-02 02:06:00,34.7,33.1,30.23,SE,135,0.2,0.2,94,0.00,,,0.00,WUHU216HW,2013-02-02 10:06:00,
2013-02-02 02:11:00,34.4,32.8,30.23,East,90,0.0,0.4,94,0.00,,,0.00,WUHU216HW,2013-02-02 10:11:00,
2013-02-02 02:16:00,34.2,32.6,30.23,NE,45,0.2,0.4,94,0.00,,,0.00,WUHU216HW,2013-02-02 10:16:00,
2013-02-02 02:21:00,34.2,32.9,30.23,NE,45,0.0,0.4,95,0.00,,,0.00,WUHU216HW,2013-02-02 10:21:00,
2013-02-02 02:26:00,34.0,32.7,30.24,NE,45,0.2,0.4,95,0.00,,,0.00,WUHU216HW,2013-02-02 10:26:00,
2013-02-02 02:31:00,34.0,32.7,30.23,NE,45,0.0,0.2,95,0.00,,,0.00,WUHU216HW,2013-02-02 10:31:00,
2013-02-02 02:35:00,34.0,32.7,30.23,NE,45,0.2,0.2,95,0.00,,,0.00,WUHU216HW,2013-02-02 10:35:00,
2013-02-02 02:40:00,34.0,32.7,30.23,NE,45,0.0,0.2,95,0.00,,,0.00,WUHU216HW,2013-02-02 10:40:00,
2013-02-02 02:45:00,34.0,32.7,30.23,NE,45,0.0,0.2,95,0.00,,,0.00,WUHU216HW,2013-02-02 10:45:00,
2013-02-02 02:50:00,34.2,32.9,30.23,NE,45,0.0,0.0,95,0.00,,,0.00,WUHU216HW,2013-02-02 10:50:00,
2013-02-02 02:56:00,34.2,32.9,30.23,WSW,248,0.2,0.2,95,0.00,,,0.00,WUHU216HW,2013-02-02 10:56:00,
2013-02-02 03:01:00,34.2,32.9,30.23,SSW,203,0.2,0.4,95,0.00,,,0.00,WUHU216HW,2013-02-02 11:01:00,
2013-02-02 03:06:00,34.2,32.9,30.23,SW,225,0.7,1.1,95,0.00,,,0.00,WUHU216HW,2013-02-02 11:06:00,
2013-02-02 03:11:00,34.2,32.6,30.23,WSW,248,0.4,1.8,94,0.00,,,0.00,WUHU216HW,2013-02-02 11:11:00,
2013-02-02 03:16:00,34.2,32.6,30.23,SSW,203,0.4,1.8,94,0.00,,,0.00,WUHU216HW,2013-02-02 11:16:00,
2013-02-02 03:21:00,34.2,32.6,30.22,SW,225,0.2,1.1,94,0.00,,,0.00,WUHU216HW,2013-02-02 11:21:00,
2013-02-02 03:26:00,34.2,32.6,30.22,SW,225,0.0,0.4,94,0.00,,,0.00,WUHU216HW,2013-02-02 11:26:00,
2013-02-02 03:31:00,34.2,32.6,30.22,SW,225,0.0,0.4,94,0.00,,,0.00,WUHU216HW,2013-02-02 11:31:00,
2013-02-02 03:36:00,34.4,32.8,30.22,SW,225,0.0,0.2,94,0.00,,,0.00,WUHU216HW,2013-02-02 11:36:00,
2013-02-02 03:41:00,34.4,32.8,30.22,SW,225,0.0,0.2,94,0.00,,,0.00,WUHU216HW,2013-02-02 11:41:00,
2013-02-02 03:45:00,34.4,32.8,30.22,SW,225,0.0,0.7,94,0.00,,,0.00,WUHU216HW,2013-02-02 11:45:00,
2013-02-02 03:50:00,34.4,32.8,30.22,SW,225,0.0,0.7,94,0.00,,,0.00,WUHU216HW,2013-02-02 11:50:00,
2013-02-02 03:55:00,34.6,32.9,30.22,SW,225,0.0,0.4,94,0.00,,,0.00,WUHU216HW,2013-02-02 11:55:00,
2013-02-02 04:01:00,34.6,33.2,30.22,SW,225,0.2,0.2,95,0.00,,,0.00,WUHU216HW,2013-02-02 12:01:00,
2013-02-02 04:06:00,34.7,33.1,30.22,SW,225,0.0,0.2,94,0.00,,,0.00,WUHU216HW,2013-02-02 12:06:00,
2013-02-02 04:11:00,34.7,33.1,30.22,SW,225,0.2,0.4,94,0.00,,,0.00,WUHU216HW,2013-02-02 12:11:00,
2013-02-02 04:16:00,34.9,33.6,30.22,SW,225,0.0,0.4,95,0.00,,,0.00,WUHU216HW,2013-02-02 12:16:00,
2013-02-02 04:21:00,34.9,33.6,30.22,SW,225,0.2,0.4,95,0.00,,,0.00,WUHU216HW,2013-02-02 12:21:00,
2013-02-02 04:26:00,35.1,33.8,30.22,SW,225,0.2,0.7,95,0.00,,,0.00,WUHU216HW,2013-02-02 12:26:00,
2013-02-02 04:31:00,35.3,33.9,30.22,SW,225,0.9,0.9,95,0.00,,,0.00,WUHU216HW,2013-02-02 12:31:00,
2013-02-02 04:36:00,35.3,33.9,30.22,WSW,248,0.4,1.1,95,0.00,,,0.00,WUHU216HW,2013-02-02 12:36:00,
2013-02-02 04:40:00,35.3,33.9,30.22,WSW,248,0.9,1.1,95,0.00,,,0.00,WUHU216HW,2013-02-02 12:40:00,
2013-02-02 04:45:00,35.5,34.1,30.22,SW,225,0.9,0.9,95,0.00,,,0.00,WUHU216HW,2013-02-02 12:45:00,
2013-02-02 04:50:00,35.5,34.1,30.22,WSW,248,1.1,1.3,95,0.00,,,0.00,WUHU216HW,2013-02-02 12:50:00,
2013-02-02 04:56:00,35.5,34.1,30.22,SW,225,0.4,1.8,95,0.00,,,0.00,WUHU216HW,2013-02-02 12:56:00,
2013-02-02 05:01:00,35.3,33.9,30.21,WSW,248,0.0,1.8,95,0.00,,,0.00,WUHU216HW,2013-02-02 13:01:00,
2013-02-02 05:05:00,35.5,34.1,30.22,WSW,248,0.4,0.7,95,0.00,,,0.00,WUHU216HW,2013-02-02 13:05:00,
2013-02-02 05:10:00,35.5,34.1,30.21,WSW,248,0.4,0.9,95,0.00,,,0.00,WUHU216HW,2013-02-02 13:10:00,
2013-02-02 05:15:00,35.5,34.1,30.21,WSW,248,0.0,0.9,95,0.00,,,0.00,WUHU216HW,2013-02-02 13:15:00,
2013-02-02 05:20:00,35.5,34.1,30.21,WSW,248,0.2,0.7,95,0.00,,,0.00,WUHU216HW,2013-02-02 13:20:00,
2013-02-02 05:25:00,35.5,34.1,30.21,SW,225,0.4,0.9,95,0.00,,,0.00,WUHU216HW,2013-02-02 13:25:00,
2013-02-02 05:30:00,35.5,34.1,30.21,SW,225,0.2,0.9,95,0.00,,,0.00,WUHU216HW,2013-02-02 13:30:00,
2013-02-02 05:36:00,35.5,34.1,30.21,WSW,248,0.2,0.7,95,0.00,,,0.00,WUHU216HW,2013-02-02 13:36:00,
2013-02-02 05:41:00,35.5,34.1,30.20,WSW,248,0.0,0.4,95,0.00,,,0.00,WUHU216HW,2013-02-02 13:41:00,
2013-02-02 05:46:00,35.5,34.1,30.20,WSW,248,0.0,0.2,95,0.00,,,0.00,WUHU216HW,2013-02-02 13:46:00,
2013-02-02 05:51:00,35.5,34.1,30.20,WSW,248,0.0,0.0,95,0.00,,,0.00,WUHU216HW,2013-02-02 13:51:00,
2013-02-02 05:56:00,35.5,34.1,30.20,WSW,248,0.0,0.0,95,0.00,,,0.00,WUHU216HW,2013-02-02 13:56:00,
2013-02-02 06:01:00,35.5,34.1,30.20,WSW,248,0.0,0.4,95,0.00,,,0.00,WUHU216HW,2013-02-02 14:01:00,
2013-02-02 06:05:00,35.5,34.1,30.20,WSW,248,0.0,0.4,95,0.00,,,0.00,WUHU216HW,2013-02-02 14:05:00,
2013-02-02 06:10:00,35.5,34.1,30.20,WSW,248,0.0,0.0,95,0.00,,,0.00,WUHU216HW,2013-02-02 14:10:00,
2013-02-02 06:15:00,35.5,34.1,30.20,WSW,248,0.0,0.0,95,0.00,,,0.00,WUHU216HW,2013-02-02 14:15:00,
2013-02-02 06:20:00,35.5,34.1,30.20,WSW,248,0.0,0.0,95,0.00,,,0.00,WUHU216HW,2013-02-02 14:20:00,
2013-02-02 06:25:00,35.5,34.1,30.20,WSW,248,0.0,0.2,95,0.00,,,0.00,WUHU216HW,2013-02-02 14:25:00,
2013-02-02 06:30:00,35.3,33.9,30.20,WSW,248,0.0,0.2,95,0.00,,,0.00,WUHU216HW,2013-02-02 14:30:00,
2013-02-02 06:35:00,35.3,33.9,30.20,SSW,203,0.2,0.4,95,0.00,,,0.00,WUHU216HW,2013-02-02 14:35:00,
2013-02-02 06:40:00,35.3,33.9,30.20,South,180,0.2,0.4,95,0.00,,,0.00,WUHU216HW,2013-02-02 14:40:00,
2013-02-02 06:45:00,35.3,33.9,30.20,SSE,158,0.2,0.4,95,0.00,,,0.00,WUHU216HW,2013-02-02 14:45:00,
2013-02-02 06:50:00,35.3,33.9,30.20,SSE,158,0.0,0.4,95,0.00,,,0.00,WUHU216HW,2013-02-02 14:50:00,
2013-02-02 06:55:00,35.3,33.9,30.20,SSE,158,0.0,0.4,95,0.00,,,0.00,WUHU216HW,2013-02-02 14:55:00,
2013-02-02 07:00:00,35.5,34.1,30.20,SW,225,0.4,0.4,95,0.00,,,0.00,WUHU216HW,2013-02-02 15:00:00,
2013-02-02 07:05:00,35.5,34.1,30.20,SSE,158,0.7,0.9,95,0.00,,,0.00,WUHU216HW,2013-02-02 15:05:00,
2013-02-02 07:10:00,35.5,34.1,30.20,SSE,158,0.0,0.9,95,0.00,,,0.00,WUHU216HW,2013-02-02 15:10:00,
2013-02-02 07:15:00,35.5,34.1,30.21,SW,225,0.4,0.7,95,0.00,,,0.00,WUHU216HW,2013-02-02 15:15:00,
2013-02-02 07:20:00,35.5,34.1,30.21,SW,225,0.7,0.7,95,0.00,,,0.00,WUHU216HW,2013-02-02 15:20:00,
2013-02-02 07:25:00,35.6,34.3,30.21,SW,225,0.4,0.7,95,0.00,,,0.00,WUHU216HW,2013-02-02 15:25:00,
2013-02-02 07:30:00,35.6,34.3,30.21,SSE,158,0.4,0.7,95,0.00,,,0.00,WUHU216HW,2013-02-02 15:30:00,
2013-02-02 07:35:00,35.5,34.1,30.21,SSE,158,0.0,0.4,95,0.00,,,0.00,WUHU216HW,2013-02-02 15:35:00,
2013-02-02 07:40:00,35.5,34.1,30.21,SSE,158,0.0,0.4,95,0.00,,,0.00,WUHU216HW,2013-02-02 15:40:00,
2013-02-02 07:45:00,35.5,34.1,30.21,SSE,158,0.0,0.0,95,0.00,,,0.00,WUHU216HW,2013-02-02 15:45:00,
2013-02-02 07:50:00,35.5,34.4,30.21,SSE,158,0.0,0.2,96,0.00,,,0.00,WUHU216HW,2013-02-02 15:50:00,
2013-02-02 07:55:00,35.6,34.6,30.22,SSE,158,0.0,0.2,96,0.00,,,0.00,WUHU216HW,2013-02-02 15:55:00,
2013-02-02 08:00:00,36.4,35.3,30.22,SSE,158,0.0,0.2,96,0.00,,,0.00,WUHU216HW,2013-02-02 16:00:00,
2013-02-02 08:05:00,36.9,35.8,30.22,SSE,158,1.1,1.1,96,0.00,,,0.00,WUHU216HW,2013-02-02 16:05:00,
2013-02-02 08:10:00,36.9,35.6,30.22,South,180,0.2,1.3,95,0.00,,,0.00,WUHU216HW,2013-02-02 16:10:00,
2013-02-02 08:15:00,37.1,36.0,30.22,SSW,203,0.4,1.3,96,0.00,,,0.00,WUHU216HW,2013-02-02 16:15:00,
2013-02-02 08:20:00,37.3,36.2,30.23,WSW,248,0.2,0.9,96,0.00,,,0.00,WUHU216HW,2013-02-02 16:20:00,
2013-02-02 08:25:00,37.4,36.4,30.23,SSE,158,0.9,1.3,96,0.00,,,0.00,WUHU216HW,2013-02-02 16:25:00,
2013-02-02 08:30:00,37.8,36.7,30.23,SSE,158,0.4,1.3,96,0.00,,,0.00,WUHU216HW,2013-02-02 16:30:00,
2013-02-02 08:35:00,38.0,36.6,30.24,SW,225,0.7,0.7,95,0.00,,,0.00,WUHU216HW,2013-02-02 16:35:00,
2013-02-02 08:40:00,38.2,36.8,30.24,SW,225,0.4,0.7,95,0.00,,,0.00,WUHU216HW,2013-02-02 16:40:00,
2013-02-02 08:45:00,38.2,36.8,30.24,SSW,203,0.0,0.7,95,0.00,,,0.00,WUHU216HW,2013-02-02 16:45:00,
2013-02-02 08:50:00,38.5,37.2,30.24,SW,225,0.2,0.9,95,0.00,,,0.00,WUHU216HW,2013-02-02 16:50:00,
2013-02-02 08:55:00,38.7,37.4,30.24,SSW,203,0.4,1.8,95,0.00,,,0.00,WUHU216HW,2013-02-02 16:55:00,
2013-02-02 09:00:00,38.5,36.9,30.24,SW,225,1.1,2.0,94,0.00,,,0.00,WUHU216HW,2013-02-02 17:00:00,
2013-02-02 09:05:00,38.3,36.7,30.25,WSW,248,0.4,2.0,94,0.00,,,0.00,WUHU216HW,2013-02-02 17:05:00,
2013-02-02 09:10:00,38.5,36.9,30.25,SW,225,0.9,2.9,94,0.00,,,0.00,WUHU216HW,2013-02-02 17:10:00,
2013-02-02 09:15:00,38.3,36.7,30.25,SW,225,0.2,2.9,94,0.00,,,0.00,WUHU216HW,2013-02-02 17:15:00,
2013-02-02 09:20:00,38.5,36.9,30.25,SSE,158,0.4,1.8,94,0.00,,,0.00,WUHU216HW,2013-02-02 17:20:00,
2013-02-02 09:25:00,38.5,36.9,30.25,SW,225,1.1,1.8,94,0.00,,,0.00,WUHU216HW,2013-02-02 17:25:00,
2013-02-02 09:30:00,38.5,36.9,30.25,SW,225,0.9,1.8,94,0.00,,,0.00,WUHU216HW,2013-02-02 17:30:00,
2013-02-02 09:35:00,38.7,37.1,30.25,WSW,248,0.9,1.8,94,0.00,,,0.00,WUHU216HW,2013-02-02 17:35:00,
2013-02-02 09:40:00,38.9,37.3,30.25,SSE,158,0.9,1.6,94,0.00,,,0.00,WUHU216HW,2013-02-02 17:40:00,
2013-02-02 09:45:00,38.9,37.3,30.25,SW,225,0.2,1.6,94,0.00,,,0.00,WUHU216HW,2013-02-02 17:45:00,
2013-02-02 09:50:00,39.2,37.6,30.25,SW,225,0.2,0.9,94,0.00,,,0.00,WUHU216HW,2013-02-02 17:50:00,
2013-02-02 09:55:00,39.4,37.8,30.25,South,180,0.0,1.1,94,0.00,,,0.00,WUHU216HW,2013-02-02 17:55:00,
2013-02-02 10:00:00,39.8,38.2,30.25,SSE,158,1.1,1.8,94,0.00,,,0.00,WUHU216HW,2013-02-02 18:00:00,
2013-02-02 10:05:00,39.8,38.2,30.25,WSW,248,0.2,1.8,94,0.00,,,0.00,WUHU216HW,2013-02-02 18:05:00,
2013-02-02 10:10:00,39.8,38.2,30.25,SW,225,1.1,2.0,94,0.00,,,0.00,WUHU216HW,2013-02-02 18:10:00,
2013-02-02 10:15:00,39.8,38.2,30.26,SW,225,0.4,2.0,94,0.00,,,0.00,WUHU216HW,2013-02-02 18:15:00,
2013-02-02 10:20:00,39.6,38.0,30.26,West,270,0.2,1.6,94,0.00,,,0.00,WUHU216HW,2013-02-02 18:20:00,
2013-02-02 10:25:00,39.6,38.0,30.26,SW,225,0.4,1.6,94,0.00,,,0.00,WUHU216HW,2013-02-02 18:25:00,
2013-02-02 10:30:00,39.8,38.2,30.26,South,180,0.2,1.1,94,0.00,,,0.00,WUHU216HW,2013-02-02 18:30:00,
2013-02-02 10:35:00,40.0,38.3,30.26,WSW,248,0.4,1.1,94,0.00,,,0.00,WUHU216HW,2013-02-02 18:35:00,
2013-02-02 10:40:00,40.0,38.3,30.26,South,180,0.0,0.9,94,0.00,,,0.00,WUHU216HW,2013-02-02 18:40:00,
2013-02-02 10:45:00,40.1,38.5,30.26,SW,225,0.9,1.8,94,0.00,,,0.00,WUHU216HW,2013-02-02 18:45:00,
2013-02-02 10:50:00,40.0,38.3,30.26,South,180,0.2,1.8,94,0.00,,,0.00,WUHU216HW,2013-02-02 18:50:00,
2013-02-02 10:55:00,40.0,38.3,30.26,SE,135,0.4,1.3,94,0.00,,,0.00,WUHU216HW,2013-02-02 18:55:00,
2013-02-02 11:00:00,40.1,38.5,30.26,SW,225,0.9,2.2,94,0.00,,,0.00,WUHU216HW,2013-02-02 19:00:00,
2013-02-02 11:05:00,40.1,38.5,30.26,West,270,1.8,2.2,94,0.00,,,0.00,WUHU216HW,2013-02-02 19:05:00,
2013-02-02 11:10:00,40.1,38.5,30.26,South,180,0.4,3.8,94,0.00,,,0.00,WUHU216HW,2013-02-02 19:10:00,
2013-02-02 11:15:00,40.1,38.5,30.26,SSW,203,1.1,3.8,94,0.00,,,0.00,WUHU216HW,2013-02-02 19:15:00,
2013-02-02 11:20:00,40.1,38.5,30.26,South,180,1.1,1.8,94,0.00,,,0.00,WUHU216HW,2013-02-02 19:20:00,
2013-02-02 11:25:00,40.5,39.2,30.26,SW,225,1.1,2.5,95,0.00,,,0.00,WUHU216HW,2013-02-02 19:25:00,
2013-02-02 11:30:00,40.9,39.5,30.26,WSW,248,0.9,2.5,95,0.00,,,0.00,WUHU216HW,2013-02-02 19:30:00,
2013-02-02 11:35:00,41.0,39.7,30.26,WSW,248,1.8,2.9,95,0.00,,,0.00,WUHU216HW,2013-02-02 19:35:00,
2013-02-02 11:41:00,41.0,39.7,30.25,SW,225,1.3,2.9,95,0.00,,,0.00,WUHU216HW,2013-02-02 19:41:00,
2013-02-02 11:46:00,41.2,39.9,30.26,SW,225,1.1,2.7,95,0.00,,,0.00,WUHU216HW,2013-02-02 19:46:00,
2013-02-02 11:51:00,41.2,39.9,30.26,South,180,0.4,1.8,95,0.00,,,0.00,WUHU216HW,2013-02-02 19:51:00,
2013-02-02 11:56:00,41.4,40.1,30.25,South,180,0.4,1.1,95,0.00,,,0.00,WUHU216HW,2013-02-02 19:56:00,
2013-02-02 12:01:00,41.6,40.2,30.25,South,180,1.6,2.7,95,0.00,,,0.00,WUHU216HW,2013-02-02 20:01:00,
2013-02-02 12:06:00,41.8,40.4,30.25,SSE,158,0.4,2.7,95,0.00,,,0.00,WUHU216HW,2013-02-02 20:06:00,
2013-02-02 12:11:00,41.9,40.3,30.25,SSE,158,0.0,1.3,94,0.00,,,0.00,WUHU216HW,2013-02-02 20:11:00,
2013-02-02 12:16:00,42.3,40.7,30.25,SW,225,1.1,1.8,94,0.00,,,0.00,WUHU216HW,2013-02-02 20:16:00,
2013-02-02 12:21:00,42.5,40.9,30.25,SSW,203,0.2,4.0,94,0.00,,,0.00,WUHU216HW,2013-02-02 20:21:00,
2013-02-02 12:26:00,42.5,40.9,30.25,WNW,293,0.0,4.0,94,0.00,,,0.00,WUHU216HW,2013-02-02 20:26:00,
2013-02-02 12:31:00,42.8,41.2,30.25,South,180,0.0,1.1,94,0.00,,,0.00,WUHU216HW,2013-02-02 20:31:00,
2013-02-02 12:36:00,42.8,41.2,30.25,South,180,0.9,1.6,94,0.00,,,0.00,WUHU216HW,2013-02-02 20:36:00,
2013-02-02 12:41:00,42.8,41.0,30.25,SSE,158,2.5,2.5,93,0.00,,,0.00,WUHU216HW,2013-02-02 20:41:00,
2013-02-02 12:46:00,42.8,41.0,30.25,SSE,158,1.6,2.5,93,0.00,,,0.00,WUHU216HW,2013-02-02 20:46:00,
2013-02-02 12:51:00,43.0,41.1,30.25,SSE,158,0.7,2.5,93,0.00,,,0.00,WUHU216HW,2013-02-02 20:51:00,
2013-02-02 12:56:00,43.2,41.3,30.24,SSE,158,0.9,1.6,93,0.00,,,0.00,WUHU216HW,2013-02-02 20:56:00,
2013-02-02 13:01:00,43.4,41.5,30.24,SE,135,0.4,1.8,93,0.00,,,0.00,WUHU216HW,2013-02-02 21:01:00,
2013-02-02 13:06:00,43.6,41.7,30.24,SW,225,1.1,2.2,93,0.00,,,0.00,WUHU216HW,2013-02-02 21:06:00,
2013-02-02 13:11:00,43.4,41.5,30.24,SSE,158,2.2,2.2,93,0.00,,,0.00,WUHU216HW,2013-02-02 21:11:00,
2013-02-02 13:16:00,43.4,41.5,30.23,SE,135,0.2,2.2,93,0.00,,,0.00,WUHU216HW,2013-02-02 21:16:00,
2013-02-02 13:21:00,43.6,41.7,30.23,SSW,203,0.2,2.2,93,0.00,,,0.00,WUHU216HW,2013-02-02 21:21:00,
2013-02-02 13:26:00,43.6,41.4,30.23,SW,225,1.1,1.8,92,0.00,,,0.00,WUHU216HW,2013-02-02 21:26:00,
2013-02-02 13:31:00,43.4,41.2,30.23,SSW,203,0.9,2.7,92,0.00,,,0.00,WUHU216HW,2013-02-02 21:31:00,
2013-02-02 13:36:00,43.2,41.0,30.23,SW,225,1.6,2.7,92,0.00,,,0.00,WUHU216HW,2013-02-02 21:36:00,
2013-02-02 13:41:00,43.2,41.0,30.23,SSE,158,0.2,1.6,92,0.00,,,0.00,WUHU216HW,2013-02-02 21:41:00,
2013-02-02 13:46:00,43.4,41.2,30.23,SSW,203,0.4,1.8,92,0.00,,,0.00,WUHU216HW,2013-02-02 21:46:00,
2013-02-02 13:51:00,43.4,41.2,30.23,SSE,158,0.4,1.8,92,0.00,,,0.00,WUHU216HW,2013-02-02 21:51:00,
2013-02-02 13:56:00,43.2,41.0,30.22,SSE,158,2.5,2.5,92,0.00,,,0.00,WUHU216HW,2013-02-02 21:56:00,
2013-02-02 14:01:00,43.6,41.4,30.23,SSE,158,0.7,2.5,92,0.00,,,0.00,WUHU216HW,2013-02-02 22:01:00,
2013-02-02 14:06:00,43.6,41.1,30.23,SSW,203,0.4,1.8,91,0.00,,,0.00,WUHU216HW,2013-02-02 22:06:00,
2013-02-02 14:11:00,43.4,41.0,30.23,South,180,0.0,1.3,91,0.00,,,0.00,WUHU216HW,2013-02-02 22:11:00,
2013-02-02 14:16:00,43.4,41.0,30.23,SW,225,0.2,1.3,91,0.00,,,0.00,WUHU216HW,2013-02-02 22:16:00,
2013-02-02 14:21:00,43.4,41.0,30.22,SSW,203,0.0,1.1,91,0.00,,,0.00,WUHU216HW,2013-02-02 22:21:00,
2013-02-02 14:26:00,43.4,41.2,30.22,SSW,203,0.9,1.1,92,0.00,,,0.00,WUHU216HW,2013-02-02 22:26:00,
2013-02-02 14:31:00,43.4,41.2,30.23,SE,135,0.2,1.1,92,0.00,,,0.00,WUHU216HW,2013-02-02 22:31:00,
2013-02-02 14:36:00,43.6,41.4,30.23,SSW,203,1.3,1.3,92,0.00,,,0.00,WUHU216HW,2013-02-02 22:36:00,
2013-02-02 14:41:00,43.4,41.2,30.22,SW,225,1.1,3.4,92,0.00,,,0.00,WUHU216HW,2013-02-02 22:41:00,
2013-02-02 14:46:00,43.4,41.2,30.23,SSW,203,0.7,3.4,92,0.00,,,0.00,WUHU216HW,2013-02-02 22:46:00,
2013-02-02 14:51:00,43.2,40.8,30.23,SSW,203,0.4,1.8,91,0.00,,,0.00,WUHU216HW,2013-02-02 22:51:00,
2013-02-02 14:56:00,43.2,41.0,30.23,West,270,0.0,1.8,92,0.00,,,0.00,WUHU216HW,2013-02-02 22:56:00,
2013-02-02 15:01:00,43.4,41.0,30.23,North,0,0.0,0.9,91,0.00,,,0.00,WUHU216HW,2013-02-02 23:01:00,
2013-02-02 15:06:00,43.2,40.8,30.23,NE,45,0.0,0.9,91,0.00,,,0.00,WUHU216HW,2013-02-02 23:06:00,
2013-02-02 15:11:00,43.4,41.2,30.23,West,270,0.2,0.9,92,0.00,,,0.00,WUHU216HW,2013-02-02 23:11:00,
2013-02-02 15:16:00,43.7,41.6,30.23,WSW,248,1.1,1.1,92,0.00,,,0.00,WUHU216HW,2013-02-02 23:16:00,
2013-02-02 15:21:00,43.9,41.5,30.23,SSW,203,2.2,2.2,91,0.00,,,0.00,WUHU216HW,2013-02-02 23:21:00,
2013-02-02 15:26:00,43.7,41.3,30.23,SE,135,0.4,2.2,91,0.00,,,0.00,WUHU216HW,2013-02-02 23:26:00,
2013-02-02 15:31:00,43.6,41.1,30.23,SE,135,0.2,2.2,91,0.00,,,0.00,WUHU216HW,2013-02-02 23:31:00,
2013-02-02 15:36:00,43.7,41.3,30.23,WSW,248,0.4,0.9,91,0.00,,,0.00,WUHU216HW,2013-02-02 23:36:00,
2013-02-02 15:41:00,44.1,41.7,30.22,SSE,158,0.7,1.1,91,0.00,,,0.00,WUHU216HW,2013-02-02 23:41:00,
2013-02-02 15:46:00,43.7,41.0,30.22,ESE,113,0.0,1.1,90,0.00,,,0.00,WUHU216HW,2013-02-02 23:46:00,
2013-02-02 15:51:00,43.6,41.1,30.22,West,270,0.0,0.7,91,0.00,,,0.00,WUHU216HW,2013-02-02 23:51:00,
2013-02-02 15:56:00,43.6,41.1,30.22,WSW,248,0.4,1.1,91,0.00,,,0.00,WUHU216HW,2013-02-02 23:56:00,
2013-02-02 16:00:00,43.6,41.1,30.22,SW,225,0.4,1.1,91,0.00,,,0.00,WUHU216HW,2013-02-03 00:00:00,
2013-02-02 16:05:00,43.6,41.1,30.22,SW,225,0.0,0.4,91,0.00,,,0.00,WUHU216HW,2013-02-03 00:05:00,
2013-02-02 16:10:00,43.7,41.3,30.22,WNW,293,0.0,0.4,91,0.00,,,0.00,WUHU216HW,2013-02-03 00:10:00,
2013-02-02 16:15:00,43.4,40.7,30.22,WNW,293,0.0,0.4,90,0.00,,,0.00,WUHU216HW,2013-02-03 00:15:00,
2013-02-02 16:20:00,42.8,40.4,30.22,NNW,338,0.0,0.4,91,0.00,,,0.00,WUHU216HW,2013-02-03 00:20:00,
2013-02-02 16:25:00,42.5,40.1,30.22,NNW,338,0.0,0.4,91,0.00,,,0.00,WUHU216HW,2013-02-03 00:25:00,
2013-02-02 16:30:00,43.0,40.9,30.22,NW,315,0.0,0.2,92,0.00,,,0.00,WUHU216HW,2013-02-03 00:30:00,
2013-02-02 16:36:00,43.4,41.2,30.22,WSW,248,0.4,0.4,92,0.00,,,0.00,WUHU216HW,2013-02-03 00:36:00,
2013-02-02 16:41:00,43.9,41.5,30.22,WSW,248,0.0,0.7,91,0.00,,,0.00,WUHU216HW,2013-02-03 00:41:00,
2013-02-02 16:46:00,44.3,41.9,30.22,SW,225,0.2,0.7,91,0.00,,,0.00,WUHU216HW,2013-02-03 00:46:00,
2013-02-02 16:51:00,44.3,41.6,30.22,SW,225,0.4,1.8,90,0.00,,,0.00,WUHU216HW,2013-02-03 00:51:00,
2013-02-02 16:56:00,44.1,41.4,30.22,SW,225,1.1,1.8,90,0.00,,,0.00,WUHU216HW,2013-02-03 00:56:00,
2013-02-02 17:00:00,44.3,41.6,30.22,WSW,248,0.7,1.1,90,0.00,,,0.00,WUHU216HW,2013-02-03 01:00:00,
2013-02-02 17:06:00,44.3,41.6,30.22,WNW,293,0.4,1.1,90,0.00,,,0.00,WUHU216HW,2013-02-03 01:06:00,
2013-02-02 17:10:00,44.3,41.6,30.22,WSW,248,0.2,0.7,90,0.00,,,0.00,WUHU216HW,2013-02-03 01:10:00,
2013-02-02 17:16:00,44.1,41.4,30.22,SW,225,0.0,0.7,90,0.00,,,0.00,WUHU216HW,2013-02-03 01:16:00,
2013-02-02 17:20:00,43.7,41.0,30.22,WNW,293,0.2,0.4,90,0.00,,,0.00,WUHU216HW,2013-02-03 01:20:00,
2013-02-02 17:25:00,43.6,40.9,30.22,NW,315,0.0,0.4,90,0.00,,,0.00,WUHU216HW,2013-02-03 01:25:00,
2013-02-02 17:30:00,43.4,40.7,30.22,NW,315,0.0,0.2,90,0.00,,,0.00,WUHU216HW,2013-02-03 01:30:00,
2013-02-02 17:35:00,43.2,40.5,30.21,NW,315,0.0,0.0,90,0.00,,,0.00,WUHU216HW,2013-02-03 01:35:00,
2013-02-02 17:40:00,42.8,40.1,30.22,NW,315,0.0,0.0,90,0.00,,,0.00,WUHU216HW,2013-02-03 01:40:00,
2013-02-02 17:45:00,42.5,39.8,30.22,NW,315,0.0,0.0,90,0.00,,,0.00,WUHU216HW,2013-02-03 01:45:00,
2013-02-02 17:50:00,42.1,39.7,30.22,NW,315,0.0,0.2,91,0.00,,,0.00,WUHU216HW,2013-02-03 01:50:00,
2013-02-02 17:55:00,41.8,39.3,30.21,West,270,0.0,0.2,91,0.00,,,0.00,WUHU216HW,2013-02-03 01:55:00,
2013-02-02 18:00:00,41.9,39.8,30.22,West,270,0.0,0.2,92,0.00,,,0.00,WUHU216HW,2013-02-03 02:00:00,
2013-02-02 18:05:00,42.3,40.1,30.21,West,270,0.0,0.2,92,0.00,,,0.00,WUHU216HW,2013-02-03 02:05:00,
2013-02-02 18:10:00,42.7,40.5,30.21,West,270,0.0,0.2,92,0.00,,,0.00,WUHU216HW,2013-02-03 02:10:00,
2013-02-02 18:15:00,42.8,40.7,30.21,West,270,0.0,0.2,92,0.00,,,0.00,WUHU216HW,2013-02-03 02:15:00,
2013-02-02 18:20:00,42.8,40.4,30.21,WSW,248,0.0,0.4,91,0.00,,,0.00,WUHU216HW,2013-02-03 02:20:00,
2013-02-02 18:25:00,43.0,40.6,30.21,South,180,0.0,0.4,91,0.00,,,0.00,WUHU216HW,2013-02-03 02:25:00,
2013-02-02 18:30:00,42.8,40.4,30.21,SSW,203,0.0,0.4,91,0.00,,,0.00,WUHU216HW,2013-02-03 02:30:00,
2013-02-02 18:35:00,42.7,40.2,30.21,WSW,248,0.4,0.4,91,0.00,,,0.00,WUHU216HW,2013-02-03 02:35:00,
2013-02-02 18:40:00,42.5,40.1,30.21,WSW,248,0.0,0.4,91,0.00,,,0.00,WUHU216HW,2013-02-03 02:40:00,
2013-02-02 18:45:00,42.3,39.9,30.21,SW,225,0.4,0.9,91,0.00,,,0.00,WUHU216HW,2013-02-03 02:45:00,
2013-02-02 18:50:00,42.7,40.2,30.21,SW,225,0.0,0.9,91,0.00,,,0.00,WUHU216HW,2013-02-03 02:50:00,
2013-02-02 18:55:00,42.5,40.1,30.21,SW,225,0.2,0.9,91,0.00,,,0.00,WUHU216HW,2013-02-03 02:55:00,
2013-02-02 19:00:00,42.5,40.1,30.21,SW,225,0.7,1.1,91,0.00,,,0.00,WUHU216HW,2013-02-03 03:00:00,
2013-02-02 19:05:00,42.3,39.9,30.21,SW,225,0.2,1.1,91,0.00,,,0.00,WUHU216HW,2013-02-03 03:05:00,
2013-02-02 19:10:00,42.1,39.7,30.22,NNW,338,0.4,0.7,91,0.00,,,0.00,WUHU216HW,2013-02-03 03:10:00,
2013-02-02 19:15:00,41.8,39.3,30.22,WNW,293,0.0,0.4,91,0.00,,,0.00,WUHU216HW,2013-02-03 03:15:00,
2013-02-02 19:20:00,41.6,39.4,30.22,WSW,248,0.0,0.2,92,0.00,,,0.00,WUHU216HW,2013-02-03 03:20:00,
2013-02-02 19:25:00,41.6,39.4,30.21,WSW,248,0.0,0.4,92,0.00,,,0.00,WUHU216HW,2013-02-03 03:25:00,
2013-02-02 19:30:00,41.4,39.2,30.21,NW,315,0.0,0.4,92,0.00,,,0.00,WUHU216HW,2013-02-03 03:30:00,
2013-02-02 19:35:00,40.9,39.0,30.21,NW,315,0.0,0.2,93,0.00,,,0.00,WUHU216HW,2013-02-03 03:35:00,
2013-02-02 19:40:00,40.9,39.0,30.21,WSW,248,0.0,0.2,93,0.00,,,0.00,WUHU216HW,2013-02-03 03:40:00,
2013-02-02 19:45:00,41.2,39.3,30.21,SW,225,0.0,0.4,93,0.00,,,0.00,WUHU216HW,2013-02-03 03:45:00,
2013-02-02 19:50:00,41.4,39.5,30.20,South,180,0.0,0.4,93,0.00,,,0.00,WUHU216HW,2013-02-03 03:50:00,
2013-02-02 19:55:00,41.6,39.7,30.20,SSW,203,0.0,0.4,93,0.00,,,0.00,WUHU216HW,2013-02-03 03:55:00,
2013-02-02 20:00:00,41.4,39.5,30.20,SSW,203,0.0,0.4,93,0.00,,,0.00,WUHU216HW,2013-02-03 04:00:00,
2013-02-02 20:05:00,41.2,39.3,30.20,SSW,203,0.0,0.2,93,0.00,,,0.00,WUHU216HW,2013-02-03 04:05:00,
2013-02-02 20:10:00,41.0,39.2,30.21,SW,225,0.0,0.2,93,0.00,,,0.00,WUHU216HW,2013-02-03 04:10:00,
2013-02-02 20:15:00,41.0,39.2,30.21,SW,225,0.4,0.7,93,0.00,,,0.00,WUHU216HW,2013-02-03 04:15:00,
2013-02-02 20:20:00,40.9,39.0,30.21,SW,225,0.4,1.1,93,0.00,,,0.00,WUHU216HW,2013-02-03 04:20:00,
2013-02-02 20:25:00,40.9,39.0,30.22,WSW,248,0.0,1.1,93,0.00,,,0.00,WUHU216HW,2013-02-03 04:25:00,
2013-02-02 20:30:00,40.7,38.8,30.22,WSW,248,0.7,1.6,93,0.00,,,0.00,WUHU216HW,2013-02-03 04:30:00,
2013-02-02 20:35:00,40.1,38.3,30.22,SSW,203,0.4,1.6,93,0.00,,,0.00,WUHU216HW,2013-02-03 04:35:00,
2013-02-02 20:40:00,39.8,37.9,30.22,SW,225,0.0,1.3,93,0.00,,,0.00,WUHU216HW,2013-02-03 04:40:00,
2013-02-02 20:45:00,39.6,37.7,30.22,NW,315,0.0,1.1,93,0.00,,,0.00,WUHU216HW,2013-02-03 04:45:00,
2013-02-02 20:50:00,39.1,37.2,30.22,NNW,338,0.0,0.7,93,0.00,,,0.00,WUHU216HW,2013-02-03 04:50:00,
2013-02-02 20:55:00,38.7,36.8,30.21,NNW,338,0.2,0.4,93,0.00,,,0.00,WUHU216HW,2013-02-03 04:55:00,
2013-02-02 21:00:00,38.5,36.6,30.21,NNW,338,0.0,0.4,93,0.00,,,0.00,WUHU216HW,2013-02-03 05:00:00,
2013-02-02 21:01:00,38.5,36.6,30.21,NNW,338,0.0,0.4,93,0.00,,,0.00,WUHU216HW,2013-02-03 05:01:00,
2013-02-02 21:02:00,38.5,36.6,30.21,NNW,338,0.0,0.4,93,0.00,,,0.00,WUHU216HW,2013-02-03 05:02:00,
2013-02-02 21:07:00,38.5,36.6,30.22,NNW,338,0.0,0.0,93,0.00,,,0.00,WUHU216HW,2013-02-03 05:07:00,
2013-02-02 21:12:00,38.7,36.8,30.22,West,270,0.0,0.0,93,0.00,,,0.00,WUHU216HW,2013-02-03 05:12:00,
2013-02-02 21:17:00,38.7,36.8,30.22,SSW,203,0.0,0.2,93,0.00,,,0.00,WUHU216HW,2013-02-03 05:17:00,
2013-02-02 21:22:00,39.1,37.2,30.22,SE,135,0.0,0.2,93,0.00,,,0.00,WUHU216HW,2013-02-03 05:22:00,
2013-02-02 21:27:00,39.1,37.2,30.22,West,270,0.0,0.2,93,0.00,,,0.00,WUHU216HW,2013-02-03 05:27:00,
2013-02-02 21:32:00,39.2,37.4,30.21,SSE,158,0.4,0.4,93,0.00,,,0.00,WUHU216HW,2013-02-03 05:32:00,
2013-02-02 21:37:00,39.1,37.2,30.22,SSE,158,0.0,0.9,93,0.00,,,0.00,WUHU216HW,2013-02-03 05:37:00,
2013-02-02 21:42:00,38.9,37.0,30.22,SSE,158,0.7,0.9,93,0.00,,,0.00,WUHU216HW,2013-02-03 05:42:00,
2013-02-02 21:47:00,38.9,37.0,30.22,SE,135,1.1,1.3,93,0.00,,,0.00,WUHU216HW,2013-02-03 05:47:00,
2013-02-02 21:52:00,38.7,36.8,30.22,SSE,158,0.4,1.6,93,0.00,,,0.00,WUHU216HW,2013-02-03 05:52:00,
2013-02-02 21:57:00,38.7,36.8,30.22,WSW,248,0.0,1.8,93,0.00,,,0.00,WUHU216HW,2013-02-03 05:57:00,
2013-02-02 22:02:00,38.7,36.8,30.22,WSW,248,0.0,1.8,93,0.00,,,0.00,WUHU216HW,2013-02-03 06:02:00,
2013-02-02 22:07:00,38.9,37.0,30.22,SE,135,0.7,1.1,93,0.00,,,0.00,WUHU216HW,2013-02-03 06:07:00,
2013-02-02 22:12:00,38.9,37.3,30.22,SSE,158,0.0,1.1,94,0.00,,,0.00,WUHU216HW,2013-02-03 06:12:00,
2013-02-02 22:17:00,38.7,36.8,30.22,SSE,158,0.0,0.7,93,0.00,,,0.00,WUHU216HW,2013-02-03 06:17:00,
2013-02-02 22:22:00,38.5,36.9,30.22,SSE,158,0.0,0.2,94,0.00,,,0.00,WUHU216HW,2013-02-03 06:22:00,
2013-02-02 22:27:00,38.2,36.5,30.22,SSE,158,0.0,0.0,94,0.00,,,0.00,WUHU216HW,2013-02-03 06:27:00,
2013-02-02 22:32:00,38.3,36.7,30.22,SSE,158,0.0,0.2,94,0.00,,,0.00,WUHU216HW,2013-02-03 06:32:00,
2013-02-02 22:37:00,38.3,36.7,30.23,NNW,338,0.0,0.2,94,0.00,,,0.00,WUHU216HW,2013-02-03 06:37:00,
2013-02-02 22:42:00,38.2,36.5,30.23,NNW,338,0.0,0.2,94,0.00,,,0.00,WUHU216HW,2013-02-03 06:42:00,
2013-02-02 22:47:00,38.0,36.4,30.23,North,0,0.0,0.7,94,0.00,,,0.00,WUHU216HW,2013-02-03 06:47:00,
2013-02-02 22:52:00,37.8,36.2,30.24,North,0,0.0,0.7,94,0.00,,,0.00,WUHU216HW,2013-02-03 06:52:00,
2013-02-02 22:57:00,37.6,36.3,30.24,North,0,0.0,0.4,95,0.00,,,0.00,WUHU216HW,2013-02-03 06:57:00,
2013-02-02 23:02:00,37.6,36.3,30.25,North,0,0.2,0.4,95,0.00,,,0.00,WUHU216HW,2013-02-03 07:02:00,
2013-02-02 23:07:00,37.6,36.5,30.25,SW,225,0.0,0.9,96,0.00,,,0.00,WUHU216HW,2013-02-03 07:07:00,
2013-02-02 23:12:00,37.4,36.4,30.25,NW,315,0.0,0.9,96,0.00,,,0.00,WUHU216HW,2013-02-03 07:12:00,
2013-02-02 23:17:00,37.8,36.7,30.26,NNW,338,0.0,0.4,96,0.00,,,0.00,WUHU216HW,2013-02-03 07:17:00,
2013-02-02 23:22:00,37.8,36.7,30.25,North,0,0.2,0.4,96,0.00,,,0.00,WUHU216HW,2013-02-03 07:22:00,
2013-02-02 23:27:00,37.8,36.7,30.25,NNW,338,0.2,0.4,96,0.00,,,0.00,WUHU216HW,2013-02-03 07:27:00,
2013-02-02 23:32:00,37.4,36.4,30.26,NNE,23,0.4,0.4,96,0.00,,,0.00,WUHU216HW,2013-02-03 07:32:00,
2013-02-02 23:37:00,37.4,36.4,30.25,NNW,338,0.0,0.4,96,0.00,,,0.00,WUHU216HW,2013-02-03 07:37:00,
2013-02-02 23:42:00,37.3,36.2,30.25,ENE,68,0.0,0.4,96,0.00,,,0.00,WUHU216HW,2013-02-03 07:42:00,
2013-02-02 23:47:00,37.1,36.0,30.25,NNE,23,0.0,0.7,96,0.00,,,0.00,WUHU216HW,2013-02-03 07:47:00,
2013-02-02 23:52:00,37.1,36.0,30.25,ENE,68,0.9,1.3,96,0.00,,,0.00,WUHU216HW,2013-02-03 07:52:00,
2013-02-02 23:57:00,36.9,35.8,30.25,ENE,68,0.9,1.8,96,0.00,,,0.00,WUHU216HW,2013-02-03 07:57:00,